Tiempo atmosférico en la estación meteorológica de Puerto de Pajares, Asturias (1480 m.)



Fecha
DESCASC
Temp. máxima en grados centígrados (hora)
DESCASC
Temp. mínima en grados centígrados (hora)
DESCASC
Temp. media en grados centígrados
DESCASC
Racha de viento máxima en m/sg (hora)
DESCASC
Velocidad máxima media en intervalos de 10 minutos(hora)
DESCASC
Precipitaciones diarias en mm
DESCASC
Precipitaciones de 00:00 a 06:00 en mm
DESCASC
Precipitaciones de 06:00 a 12:00 en mm
DESCASC
Precipitaciones de 12:00 a 18:00 en mm
DESCASC
Precipitaciones de 18:00 a 24:00 en mm
DESCASC

Gráficas

Temp. máximas Temp. mínimas Temp. medias Precipitaciones Rachas de viento máximas Velocidades máximas media en intervalos de 10 minutos

Datos horarios

Fecha y hora oficial Temperatura (ºC) Velocidad del viento (km/h) Dirección del viento Racha (km/h) Dirección de racha Precipitación (mm) Presión (hPa) Tendencia (hPa) Humedad (%)
2019-12-09 23:00:00 3.1 5 Oeste 9 Sudoeste 0 -- -- 38
2019-12-09 22:00:00 3.1 5 Oeste 12 Oeste 0 -- -- 45
2019-12-09 21:00:00 1.2 0 Calma 7 Sudeste 0 -- -- 76
2019-12-09 20:00:00 1.3 0 Calma 14 Noroeste 0 -- -- 89
2019-12-09 19:00:00 1.5 8 Noroeste 24 Noroeste 0 -- -- 88
2019-12-09 18:00:00 1.6 13 Noroeste 26 Noroeste 0 -- -- 87
2019-12-09 17:00:00 1.9 13 Noroeste 30 Noroeste 0 -- -- 85
2019-12-09 16:00:00 2.3 13 Noroeste 35 Noroeste 0 -- -- 83
2019-12-09 15:00:00 2.5 18 Noroeste 40 Noroeste 0 -- -- 81
2019-12-09 14:00:00 2.6 18 Noroeste 35 Noroeste 0 -- -- 78
2019-12-09 13:00:00 2.8 13 Noroeste 30 Norte 0 -- -- 77
2019-12-09 12:00:00 2.2 13 Noroeste 33 Noroeste 0 -- -- 78
2019-12-09 11:00:00 1.7 14 Noroeste 28 Noroeste 0 -- -- 77
2019-12-09 10:00:00 1 13 Noroeste 26 Noroeste 0 -- -- 70
2019-12-09 09:00:00 0.3 4 Noroeste 21 Norte 0 -- -- 49
2019-12-09 08:00:00 2.2 8 Noroeste 24 Noroeste 0 -- -- 36
2019-12-09 07:00:00 3.5 10 Noroeste 26 Noroeste 0 -- -- 30
2019-12-09 06:00:00 4.4 12 Norte 31 Noroeste 0 -- -- 27
2019-12-09 05:00:00 4.3 10 Noroeste 28 Noroeste 0 -- -- 27
2019-12-09 04:00:00 4.3 17 Noroeste 35 Noroeste 0 -- -- 26
2019-12-09 03:00:00 4.2 9 Noroeste 26 Noroeste 0 -- -- 26
2019-12-09 02:00:00 4.1 11 Noroeste 26 Oeste 0 -- -- 28
2019-12-09 01:00:00 2.9 4 Noroeste 14 Noroeste 0 -- -- 36
2019-12-09 00:00:00 2.5 0 Calma 15 Oeste 0 -- -- 39
2019-12-08 23:00:00 3.4 4 Noroeste 18 Noroeste 0 -- -- 44
2019-12-08 22:00:00 4.5 9 Norte 21 Nordeste 0 -- -- 53
2019-12-08 21:00:00 0.9 5 Sudoeste 8 Sur 0 -- -- 91
2019-12-08 20:00:00 3.5 4 Norte 17 Oeste 0 -- -- 91
2019-12-08 19:00:00 4 7 Noroeste 15 Noroeste 0 -- -- 91
2019-12-08 18:00:00 4.8 9 Noroeste 18 Noroeste 0 -- -- 91
2019-12-08 17:00:00 5.6 8 Noroeste 31 Noroeste 0 -- -- 91
2019-12-08 16:00:00 6.4 10 Noroeste 29 Noroeste 0 -- -- 91
2019-12-08 15:00:00 6.8 13 Noroeste 28 Noroeste 0 -- -- 91
2019-12-08 14:00:00 7.1 7 Noroeste 18 Noroeste 0.5 -- -- 90
2019-12-08 13:00:00 6.6 3 Noroeste 11 Noroeste 0.1 -- -- 87
2019-12-08 12:00:00 6.7 0 Calma 11 Este 0.2 -- -- 83
2019-12-08 11:00:00 6.3 5 Sur 12 Sudeste 0.7 -- -- 83
2019-12-08 10:00:00 5.8 3 Sur 13 Sur 0.8 -- -- 79
2019-12-08 09:00:00 6 7 Sudoeste 10 Sudoeste 0 -- -- 74
2019-12-08 08:00:00 6.3 0 Calma 12 Sur 0 -- -- 74
2019-12-08 07:00:00 6.4 3 Nordeste 13 Nordeste 0 -- -- 76
2019-12-08 06:00:00 5.3 0 Calma 10 Sudoeste 0 -- -- 74
2019-12-08 05:00:00 5.6 2 Sur 13 Sudoeste 0 -- -- 70
2019-12-08 04:00:00 5.3 6 Sudeste 22 Sudeste 0 -- -- 73
2019-12-08 03:00:00 5.8 9 Sudeste 19 Sur 0 -- -- 70
2019-12-08 02:00:00 4.4 3 Sur 19 Sur 0 -- -- 68
2019-12-08 01:00:00 4.5 9 Sur 16 Sur 0 -- -- 67
2019-12-08 00:00:00 3.3 5 Sur 20 Sur 0 -- -- 72
2019-12-07 23:00:00 4.6 4 Sur 13 Sur 0 -- -- 73
2019-12-07 22:00:00 5.1 4 Sur 13 Sudoeste 0 -- -- 70
2019-12-07 21:00:00 5.8 7 Sur 15 Sudoeste 0 -- -- 70
2019-12-07 20:00:00 5.6 9 Sur 14 Sudoeste 0 -- -- 73
2019-12-07 19:00:00 5.5 4 Sudoeste 13 Sur 0 -- -- 71
2019-12-07 18:00:00 5.1 3 Sur 14 Sudoeste 0 -- -- 70
2019-12-07 17:00:00 5.4 12 Sudoeste 15 Sudoeste 0 -- -- 69
2019-12-07 16:00:00 6.2 10 Sur 14 Sudoeste 0 -- -- 64
2019-12-07 15:00:00 7.1 9 Sudoeste 13 Sudoeste 0 -- -- 59
2019-12-07 14:00:00 7 6 Sur 10 Sudoeste 0 -- -- 59
2019-12-07 13:00:00 7.3 7 Sur 11 Sur 0 -- -- 60
2019-12-07 12:00:00 6 5 Sur 8 Sudoeste 0 -- -- 57
2019-12-07 11:00:00 6.5 3 Oeste 10 Sudoeste 0 -- -- 61
2019-12-07 10:00:00 4.8 3 Sudoeste 10 Sudoeste 0 -- -- 65
2019-12-07 09:00:00 4.9 5 Sudoeste 15 Sudoeste 0 -- -- 64
2019-12-07 08:00:00 4.8 10 Sudoeste 13 Sudoeste 0 -- -- 62
2019-12-07 07:00:00 4.4 9 Sudoeste 12 Sudoeste 0 -- -- 60
2019-12-07 06:00:00 3.7 7 Sur 11 Sudoeste 0 -- -- 58
2019-12-07 05:00:00 5.2 6 Sur 19 Sur 0 -- -- 54
2019-12-07 04:00:00 4.8 10 Sudoeste 15 Sur 0 -- -- 54
2019-12-07 03:00:00 5.7 13 Sur 18 Sur 0 -- -- 53
2019-12-07 02:00:00 4.4 10 Sudoeste 15 Sudoeste 0 -- -- 57
2019-12-07 01:00:00 3.7 9 Sudoeste 12 Sudoeste 0 -- -- 54
2019-12-07 00:00:00 3.8 3 Sudoeste 8 Sur 0 -- -- 56
2019-12-06 23:00:00 3.8 2 Sudoeste 13 Sudoeste 0 -- -- 55
2019-12-06 22:00:00 4.1 8 Sur 13 Sudoeste 0 -- -- 51
2019-12-06 21:00:00 3.9 4 Sur 10 Sudoeste 0 -- -- 52
2019-12-06 20:00:00 4.5 10 Sur 12 Sur 0 -- -- 52
2019-12-06 19:00:00 3.9 5 Sur 8 Sur 0 -- -- 57
2019-12-06 18:00:00 5.5 3 Oeste 8 Oeste 0 -- -- 54
2019-12-06 17:00:00 5.6 0 Calma 8 Sudoeste 0 -- -- 55
2019-12-06 16:00:00 5.1 3 Sudoeste 7 Sur 0 -- -- 53
2019-12-06 15:00:00 6.1 0 Calma 9 Sur 0 -- -- 51
2019-12-06 14:00:00 6.3 8 Sudoeste 10 Sudoeste 0 -- -- 48
2019-12-06 13:00:00 6.3 0 Calma 11 Noroeste 0 -- -- 50
2019-12-06 12:00:00 7.1 3 Nordeste 6 Sudoeste 0 -- -- 52
2019-12-06 11:00:00 4.8 5 Sudoeste 10 Sur 0 -- -- 57
2019-12-06 10:00:00 4.4 6 Sudoeste 11 Sur 0 -- -- 58
2019-12-06 09:00:00 4 0 Calma 11 Sur 0 -- -- 57
2019-12-06 08:00:00 4.2 9 Sur 16 Sur 0 -- -- 55
2019-12-06 07:00:00 3.5 9 Sur 16 Sudoeste 0 -- -- 57
2019-12-06 06:00:00 3.2 11 Sur 17 Sur 0 -- -- 56
2019-12-06 05:00:00 3.7 10 Sur 26 Sudeste 0 -- -- 56
2019-12-06 04:00:00 3.6 14 Sur 23 Sur 0 -- -- 53
2019-12-06 03:00:00 3.3 17 Sur 27 Sur 0 -- -- 54
2019-12-06 02:00:00 3.5 19 Sur 34 Sur 0 -- -- 58
2019-12-06 01:00:00 3.9 25 Sur 40 Sur 0 -- -- 62
2019-12-06 00:00:00 4.2 28 Sur 45 Sur 0 -- -- 66
2019-12-05 23:00:00 4.6 25 Sur 44 Sur 0 -- -- 64
2019-12-05 22:00:00 5 21 Sur 36 Sur 0 -- -- 63
2019-12-05 21:00:00 5 28 Sur 36 Sur 0.7 -- -- 66
2019-12-05 20:00:00 4.2 12 Sur 17 Sur 0.6 -- -- 76
2019-12-05 19:00:00 3.3 6 Sur 11 Sur 0 -- -- 91
2019-12-05 18:00:00 1.1 2 Sudoeste 11 Sur 0.1 -- -- 91
2019-12-05 17:00:00 1.9 2 Sudoeste 7 Noroeste 0.6 -- -- 91
2019-12-05 16:00:00 2.4 0 Calma 7 Oeste 1 -- -- 91
2019-12-05 15:00:00 2.4 2 Noroeste 10 Noroeste 1 -- -- 91
2019-12-05 14:00:00 2.2 6 Noroeste 10 Noroeste 1.3 -- -- 91
2019-12-05 13:00:00 2.4 4 Noroeste 10 Noroeste 1.4 -- -- 91
2019-12-05 12:00:00 2.1 3 Noroeste 10 Noroeste 1.2 -- -- 91
2019-12-05 11:00:00 1.9 3 Oeste 9 Oeste 0.8 -- -- 91
2019-12-05 10:00:00 1.3 2 Noroeste 12 Noroeste 0.6 -- -- 91
2019-12-05 09:00:00 1 5 Noroeste 12 Oeste 0.6 -- -- 91
2019-12-05 08:00:00 0.8 7 Noroeste 18 Noroeste 0.8 -- -- 91
2019-12-05 07:00:00 0.6 7 Noroeste 16 Noroeste 0.5 -- -- 91
2019-12-05 06:00:00 0.5 6 Noroeste 19 Noroeste 0.1 -- -- 91
2019-12-05 05:00:00 0.2 7 Noroeste 26 Norte 0 -- -- 91
2019-12-05 04:00:00 0.3 10 Norte 24 Norte 0 -- -- 91
2019-12-05 03:00:00 0 16 Norte 25 Nordeste 0 -- -- 91
2019-12-05 02:00:00 -0.3 13 Noroeste 18 Noroeste 0 -- -- 90
2019-12-05 01:00:00 -0.8 6 Noroeste 18 Norte 0 -- -- 90
2019-12-05 00:00:00 -1.1 6 Noroeste 17 Oeste 0 -- -- 90
2019-12-04 23:00:00 -1.1 8 Noroeste 15 Norte 0 -- -- 89
2019-12-04 22:00:00 -1.6 4 Noroeste 10 Oeste 0 -- -- 86
2019-12-04 21:00:00 -1.6 0 Calma 5 Sudoeste 0 -- -- 85
2019-12-04 20:00:00 -1.8 2 Sur 6 Sur 0 -- -- 85
2019-12-04 19:00:00 -1.8 0 Calma 4 Sur 0 -- -- 84
2019-12-04 18:00:00 -0.8 0 Calma -- -- 0 -- -- 82
2019-12-04 17:00:00 -0.1 0 Calma 3 Sur 0.5 -- -- 80
2019-12-04 16:00:00 1 0 Calma 5 Noroeste 1.9 -- -- 77
2019-12-04 15:00:00 2.4 3 Noroeste 6 Noroeste 3 -- -- 76
2019-12-04 14:00:00 3.1 0 Calma -- -- 3.1 -- -- 77
2019-12-04 13:00:00 3 0 Calma 6 Oeste 2.9 -- -- 78
2019-12-04 12:00:00 2.2 0 Calma 9 Sudoeste 1.3 -- -- 78
2019-12-04 11:00:00 1.5 8 Sudoeste 12 Sudoeste 0 -- -- 78
2019-12-04 10:00:00 0.4 10 Sur 16 Sur 0 -- -- 82
2019-12-04 09:00:00 -0.6 7 Sur 18 Sur 0 -- -- 82
2019-12-04 08:00:00 0.3 11 Sur 28 Sur 0 -- -- 82
2019-12-04 07:00:00 0.3 16 Sur 32 Sur 0.1 -- -- 82
2019-12-04 06:00:00 0 21 Sur 37 Sur 0 -- -- 82
2019-12-04 05:00:00 -0.8 22 Sur 51 Sur 0 -- -- 82
2019-12-04 04:00:00 -1.7 31 Sur 60 Sur 0 -- -- 83
2019-12-04 03:00:00 -2 35 Sur 62 Sur 0 -- -- 83
2019-12-04 02:00:00 -2.1 32 Sur 55 Sur 0 -- -- 78
2019-12-04 01:00:00 -1.9 26 Sur 54 Sur -- -- -- 74
2019-12-04 00:00:00 -1.5 33 Sur 51 Sur -- -- -- 67
2019-12-03 23:00:00 -1.9 24 Sur 34 Sur -- -- -- 73
2019-12-03 22:00:00 -1.4 21 Sur 37 Sur -- -- -- 67
2019-12-03 21:00:00 -1.8 24 Sur 39 Sur -- -- -- 77
2019-12-03 20:00:00 -1.4 19 Sur 28 Sur -- -- -- 77
2019-12-03 19:00:00 -1.2 14 Sur 24 Sur -- -- -- 80
2019-12-03 18:00:00 -3.1 8 Sur 11 Sur -- -- -- 90
2019-12-03 17:00:00 -3.4 2 Sur 6 Sudoeste -- -- -- 90
2019-12-03 16:00:00 -1.9 3 Sudeste 9 Sudeste -- -- -- 92
2019-12-03 15:00:00 -1.6 3 Sudeste 8 Sur -- -- -- 92
2019-12-03 14:00:00 -1.3 4 Sudoeste 10 Oeste -- -- -- 92
2019-12-03 13:00:00 0.2 0 Calma 6 Sudoeste -- -- -- 92
2019-12-03 12:00:00 -0.8 0 Calma 4 Sudeste -- -- -- 91
2019-12-03 11:00:00 -2.3 3 Oeste 8 Noroeste -- -- -- 91
2019-12-03 10:00:00 -2.7 3 Noroeste 9 Oeste -- -- -- 91
2019-12-03 09:00:00 -2.9 2 Oeste 9 Oeste 0 -- -- 91
2019-12-03 08:00:00 -2.8 3 Oeste 9 Oeste 0 -- -- 91
2019-12-03 07:00:00 -3 5 Oeste 13 Noroeste 0 -- -- 91
2019-12-03 06:00:00 -2.8 5 Oeste 15 Noroeste 0 -- -- 91
2019-12-03 05:00:00 -2.6 7 Noroeste 17 Oeste 0 -- -- 91
2019-12-03 04:00:00 -2.5 7 Noroeste 19 Noroeste 0 -- -- 91
2019-12-03 03:00:00 -2.4 10 Noroeste 17 Noroeste 0 -- -- 91
2019-12-03 02:00:00 -2.2 7 Noroeste 14 Noroeste 0 -- -- 91
2019-12-03 01:00:00 -2.3 5 Oeste 15 Noroeste 0 -- -- 91
2019-12-03 00:00:00 -2.3 8 Noroeste 15 Noroeste 0 -- -- 92
2019-12-02 23:00:00 -2.1 6 Noroeste 19 Noroeste 0 -- -- 92
2019-12-02 22:00:00 -1.8 8 Noroeste 23 Oeste 0 -- -- 92
2019-12-02 21:00:00 -1.5 9 Noroeste 33 Noroeste 0 -- -- 92
2019-12-02 20:00:00 -1.1 12 Noroeste 34 Oeste 0 -- -- 93
2019-12-02 19:00:00 -0.8 13 Norte 36 Norte 0 -- -- 93
2019-12-02 18:00:00 -0.3 9 Norte 34 Noroeste 0.1 -- -- 93
2019-12-02 17:00:00 0 15 Noroeste 34 Noroeste 0.8 -- -- 93
2019-12-02 16:00:00 0 12 Noroeste 32 Noroeste 1 -- -- 93
2019-12-02 15:00:00 0 15 Noroeste 32 Noroeste 0.8 -- -- 93
2019-12-02 14:00:00 0 11 Noroeste 39 Noroeste 0.9 -- -- 93
2019-12-02 13:00:00 0 9 Noroeste 37 Noroeste 0.4 -- -- 93
2019-12-02 12:00:00 0.1 18 Noroeste 35 Noroeste 0 -- -- 93
2019-12-02 11:00:00 0 13 Noroeste 27 Oeste 0 -- -- 93
2019-12-02 10:00:00 -0.1 10 Noroeste 19 Noroeste 0 -- -- 93
2019-12-02 09:00:00 -0.1 8 Noroeste 17 Noroeste 0 -- -- 93
2019-12-02 08:00:00 0 8 Noroeste 17 Noroeste 0 -- -- 93
2019-12-02 07:00:00 -0.3 8 Noroeste 23 Oeste 0 -- -- 93
2019-12-02 06:00:00 -0.5 9 Noroeste 17 Noroeste 0 -- -- 93
2019-12-02 05:00:00 -0.6 6 Noroeste 19 Noroeste 0 -- -- 93
2019-12-02 04:00:00 -0.7 7 Oeste 17 Oeste 0 -- -- 93
2019-12-02 03:00:00 -0.9 7 Noroeste 19 Noroeste 0 -- -- 93
2019-12-02 02:00:00 -1 12 Noroeste 21 Oeste 0.1 -- -- 93
2019-12-02 01:00:00 -1.1 14 Noroeste 28 Noroeste 0 -- -- 93
2019-12-02 00:00:00 -1.2 13 Noroeste 36 Oeste 0 -- -- 93
2019-12-01 23:00:00 -1.1 19 Noroeste 49 Noroeste 0 -- -- 93
2019-12-01 22:00:00 -0.7 23 Noroeste 49 Noroeste 0 -- -- 93
2019-12-01 21:00:00 -0.3 24 Noroeste 57 Noroeste 1.3 -- -- 93
2019-12-01 20:00:00 0.2 19 Noroeste 52 Noroeste 1.9 -- -- 93
2019-12-01 19:00:00 0.1 21 Noroeste 41 Noroeste 0.9 -- -- 93
2019-12-01 18:00:00 0.3 12 Noroeste 31 Noroeste 0.8 -- -- 93
2019-12-01 17:00:00 0.2 10 Noroeste 24 Noroeste 0.6 -- -- 93
2019-12-01 16:00:00 0.1 11 Noroeste 26 Noroeste 0.8 -- -- 93
2019-12-01 15:00:00 0.2 12 Noroeste 31 Noroeste 0.7 -- -- 93
2019-12-01 14:00:00 1 10 Noroeste 28 Noroeste 0.3 -- -- 93
2019-12-01 13:00:00 1.1 9 Noroeste 25 Noroeste 0.3 -- -- 93
2019-12-01 12:00:00 1.1 8 Noroeste 18 Noroeste 0 -- -- 92
2019-12-01 11:00:00 0.8 0 Calma 9 Noroeste 0.5 -- -- 90
2019-12-01 10:00:00 0.8 0 Calma 5 Noroeste 0.3 -- -- 90
2019-12-01 09:00:00 0.7 2 Norte 5 Noroeste 0 -- -- 89
2019-12-01 08:00:00 0.8 0 Calma 18 Sudeste 0.2 -- -- 88
2019-12-01 07:00:00 0.9 10 Sudeste 30 Sudeste 0.4 -- -- 89
2019-12-01 06:00:00 1.1 21 Sudeste 36 Sudeste 0.1 -- -- 89
2019-12-01 05:00:00 1 16 Sudeste 42 Sudeste 0.2 -- -- 90
2019-12-01 04:00:00 0.8 18 Sudeste 44 Sur 0 -- -- 91
2019-12-01 03:00:00 0.7 29 Sur 47 Sur 0 -- -- 87
2019-12-01 02:00:00 1 17 Sudeste 43 Sur 0.4 -- -- 84
2019-12-01 01:00:00 1.1 24 Sudeste 39 Sudeste 0.1 -- -- 83
2019-12-01 00:00:00 1.1 26 Sur 38 Sur 0 -- -- 82
2019-11-30 23:00:00 1 13 Sur 32 Sudeste 0.2 -- -- 83
2019-11-30 22:00:00 1.3 17 Sudeste 30 Este 0 -- -- 77
2019-11-30 21:00:00 1.9 10 Sudeste 27 Sudeste 0 -- -- 70
2019-11-30 20:00:00 1.9 12 Sur 28 Sur 0 -- -- 68
2019-11-30 19:00:00 2.5 8 Sudoeste 15 Sudeste 0 -- -- 61
2019-11-30 18:00:00 3 8 Sur 24 Sudoeste 0 -- -- 55
2019-11-30 17:00:00 3.3 14 Sudoeste 30 Sur 0 -- -- 52
2019-11-30 16:00:00 3.6 17 Sur 38 Sudoeste 0 -- -- 48
2019-11-30 15:00:00 4.8 13 Sudoeste 30 Sudoeste 0 -- -- 48
2019-11-30 14:00:00 4.4 11 Sur 24 Noroeste 0 -- -- 53
2019-11-30 13:00:00 4.4 5 Noroeste 26 Sudoeste 0 -- -- 65
2019-11-30 12:00:00 6.1 9 Sudoeste 44 Oeste 0 -- -- 57
2019-11-30 11:00:00 5.6 13 Sudoeste 38 Sur 0.4 -- -- 67
2019-11-30 10:00:00 5.9 6 Oeste 54 Sur 0.9 -- -- 77
2019-11-30 09:00:00 6.9 21 Sudoeste 51 Sudoeste 0 -- -- 74
2019-11-30 08:00:00 6.2 12 Sur 22 Sur 0.4 -- -- 85
2019-11-30 07:00:00 6.2 15 Sur 31 Sur 1.4 -- -- 86
2019-11-30 06:00:00 5.1 18 Sur 44 Este 1.5 -- -- 88
2019-11-30 05:00:00 4.9 24 Sudeste 42 Este 0.5 -- -- 87
2019-11-30 04:00:00 4.7 22 Sudeste 37 Sudeste 0.6 -- -- 87
2019-11-30 03:00:00 4.5 27 Sudeste 38 Sudeste 0.4 -- -- 87
2019-11-30 02:00:00 4.4 23 Sur 40 Sur 0.2 -- -- 87
2019-11-30 01:00:00 4.5 22 Sudeste 44 Sur 0 -- -- 86
2019-11-30 00:00:00 5.1 24 Sur 47 Sur 0 -- -- 82
2019-11-29 23:00:00 4.5 20 Sur 34 Sur 0 -- -- 83
2019-11-29 22:00:00 4.5 22 Sur 33 Sur 0 -- -- 82
2019-11-29 21:00:00 4.3 18 Sur 32 Sur 0 -- -- 82
2019-11-29 20:00:00 4.5 21 Sur 28 Sur 0 -- -- 80
2019-11-29 19:00:00 5.4 18 Sur 38 Sur 0 -- -- 68
2019-11-29 18:00:00 6.5 12 Sur 28 Sur 0 -- -- 46
2019-11-29 17:00:00 6.2 15 Sur 24 Sur 0 -- -- 57
2019-11-29 16:00:00 6.8 18 Sur 27 Sur 0 -- -- 49
2019-11-29 15:00:00 6.4 14 Sur 26 Sur 0 -- -- 43
2019-11-29 14:00:00 6.9 15 Sur 25 Sur 0 -- -- 40
2019-11-29 13:00:00 5.8 15 Sur 26 Sur 0 -- -- 41
2019-11-29 12:00:00 5.4 14 Sur 22 Sur 0 -- -- 44
2019-11-29 11:00:00 5.6 14 Sur 24 Sur 0 -- -- 44
2019-11-29 10:00:00 4.3 20 Sur 26 Sur 0 -- -- 46
2019-11-29 09:00:00 3.3 10 Sur 15 Sur 0 -- -- 57
2019-11-29 08:00:00 2.1 6 Sudoeste 11 Sudoeste 0 -- -- 62
2019-11-29 07:00:00 2.8 5 Sudoeste 14 Sudoeste 0 -- -- 64
2019-11-29 06:00:00 2.4 8 Sudoeste 11 Sudoeste 0 -- -- 80
2019-11-29 05:00:00 3.3 2 Oeste 10 Sudoeste 0 -- -- 71
2019-11-29 04:00:00 4.1 2 Oeste 15 Sudoeste 0 -- -- 69
2019-11-29 03:00:00 4.2 11 Sudoeste 16 Sudoeste 0 -- -- 73
2019-11-29 02:00:00 3.8 9 Sudoeste 13 Sudoeste 0 -- -- 79
2019-11-29 01:00:00 4 6 Sudoeste 13 Sur 0 -- -- 89
2019-11-29 00:00:00 4.2 2 Sudoeste 12 Oeste 0 -- -- 89
2019-11-28 23:00:00 5.3 4 Noroeste 17 Norte 0 -- -- 82
2019-11-28 22:00:00 7.7 9 Sudoeste 35 Sudoeste 0 -- -- 71
2019-11-28 21:00:00 5.6 2 Sur 27 Sudoeste 0 -- -- 86
2019-11-28 20:00:00 5.2 9 Sur 29 Sur 0 -- -- 86
2019-11-28 19:00:00 5.1 17 Sur 39 Sur 0.8 -- -- 85
2019-11-28 18:00:00 4.7 13 Sur 22 Sur 0 -- -- 82
2019-11-28 17:00:00 4.4 13 Sur 24 Sur 0.3 -- -- 79
2019-11-28 16:00:00 4.9 8 Sudoeste 25 Sur 0.9 -- -- 73
2019-11-28 15:00:00 5.5 13 Sudoeste 30 Sudoeste 0.3 -- -- 68
2019-11-28 14:00:00 6.3 16 Sudoeste 42 Sudoeste -- -- -- 72
2019-11-28 13:00:00 6.4 17 Sudoeste 32 Sudoeste -- -- -- 76
2019-11-28 12:00:00 6.2 14 Sur 29 Sur -- -- -- 79
2019-11-28 11:00:00 5.9 13 Sur 22 Sur -- -- -- 80
2019-11-28 10:00:00 5.9 9 Sudoeste 34 Sudoeste -- -- -- 75
2019-11-28 09:00:00 4.4 17 Sur 24 Sur -- -- -- 84
2019-11-28 08:00:00 5.4 8 Sur 27 Sudeste -- -- -- 75
2019-11-28 07:00:00 6.5 5 Oeste 29 Sudoeste -- -- -- 70
2019-11-28 06:00:00 6.7 2 Sur 27 Sur -- -- -- 68
2019-11-28 05:00:00 6.6 4 Sudeste 29 Sudoeste -- -- -- 67
2019-11-28 04:00:00 6.3 9 Sudoeste 37 Sur -- -- -- 65
2019-11-28 03:00:00 5.8 12 Sudoeste 31 Sudoeste -- -- -- 66
2019-11-28 02:00:00 5.1 5 Sur 42 Sur -- -- -- 70
2019-11-28 01:00:00 4.7 17 Sur 40 Sur -- -- -- 74
2019-11-28 00:00:00 3.3 13 Sur 30 Sudoeste -- -- -- 82
2019-11-27 23:00:00 4.4 13 Sur 32 Sur -- -- -- 76
2019-11-27 22:00:00 3.4 10 Sur 27 Sur -- -- -- 82
2019-11-27 21:00:00 3.1 16 Sur 30 Sur -- -- -- 82
2019-11-27 20:00:00 3 18 Sur 31 Sur -- -- -- 80
2019-11-27 19:00:00 3.1 14 Sur 34 Sudoeste -- -- -- 77
2019-11-27 18:00:00 3.5 8 Sur 35 Oeste -- -- -- 72
2019-11-27 17:00:00 3.9 7 Sur 22 Sur -- -- -- 70
2019-11-27 16:00:00 4.3 2 Sudoeste 26 Sudoeste -- -- -- 70
2019-11-27 15:00:00 4.6 7 Sur 21 Sudoeste -- -- -- 70
2019-11-27 14:00:00 3.8 4 Sudoeste 18 Sudoeste -- -- -- 77
2019-11-27 06:00:00 3.9 6 Nordeste 39 Nordeste -- -- -- 65
2019-11-27 05:00:00 4.3 12 Nordeste 34 Norte -- -- -- 68
2019-11-27 04:00:00 3.8 8 Nordeste 26 Noroeste -- -- -- 69
2019-11-27 03:00:00 3.2 14 Sur 37 Oeste -- -- -- 73
2019-11-27 02:00:00 3.1 11 Sudoeste 53 Oeste -- -- -- 67
2019-11-27 01:00:00 3.4 21 Sudoeste 54 Sudoeste -- -- -- 62
2019-11-27 00:00:00 4 22 Sudoeste 53 Sudoeste -- -- -- 59
2019-11-26 23:00:00 3.7 25 Sudoeste 56 Sudoeste -- -- -- 61
2019-11-26 22:00:00 5.1 30 Sudoeste 69 Sudoeste -- -- -- 46
2019-11-26 21:00:00 5.5 41 Sudoeste 79 Sur -- -- -- 50
2019-11-26 20:00:00 5 20 Sudoeste 51 Sudoeste -- -- -- 66
2019-11-26 19:00:00 5.6 22 Sudoeste 63 Sudoeste -- -- -- 69
2019-11-26 18:00:00 6.4 19 Sudoeste 52 Sur -- -- -- 64
2019-11-26 17:00:00 7.3 20 Sudoeste 56 Sudoeste -- -- -- 54
2019-11-26 16:00:00 6.9 17 Sur 53 Sudoeste -- -- -- 57
2019-11-26 15:00:00 7 24 Sur 48 Sur -- -- -- 58
2019-11-26 14:00:00 6.3 23 Sur 49 Sur -- -- -- 69
2019-11-26 13:00:00 6 24 Sur 60 Sur -- -- -- 65
2019-11-26 12:00:00 6.2 35 Sur 64 Sur -- -- -- 66
2019-11-26 11:00:00 6.4 24 Sur 56 Sur -- -- -- 70
2019-11-26 10:00:00 6.6 27 Sur 50 Sur -- -- -- 77
2019-11-26 09:00:00 5 24 Sur 54 Sur -- -- -- 89
2019-11-26 08:00:00 4.6 34 Sur 53 Sur -- -- -- 89
2019-11-26 07:00:00 4.2 24 Sudeste 48 Este -- -- -- 89
2019-11-26 06:00:00 3.9 38 Sudeste 54 Sudeste -- -- -- 88
2019-11-26 05:00:00 3.9 24 Sudeste 40 Este -- -- -- 86
2019-11-26 04:00:00 5.1 18 Sudeste 50 Sur -- -- -- 85
2019-11-26 03:00:00 5.2 19 Sur 49 Sur -- -- -- 83
2019-11-26 02:00:00 4.8 34 Sur 58 Sur -- -- -- 75
2019-11-26 01:00:00 4.3 34 Sur 50 Sur -- -- -- 68
2019-11-26 00:00:00 3.8 24 Sur 42 Sur -- -- -- 71
2019-11-25 23:00:00 4.5 26 Sur 45 Sur -- -- -- 65
2019-11-25 22:00:00 5 21 Sudeste 42 Sur -- -- -- 61
2019-11-25 21:00:00 6.9 6 Nordeste 41 Sur -- -- -- 45
2019-11-25 20:00:00 6.7 12 Sur 34 Sur -- -- -- 48
2019-11-25 19:00:00 5.5 22 Sur 36 Sur -- -- -- 58
2019-11-25 18:00:00 4.8 21 Sur 35 Sur -- -- -- 61
2019-11-25 17:00:00 4.5 21 Sur 31 Sur -- -- -- 62
2019-11-25 16:00:00 6.3 16 Sudoeste 33 Sur -- -- -- 50
2019-11-25 15:00:00 6.6 13 Sudoeste 28 Sur -- -- -- 50
2019-11-25 14:00:00 6.5 4 Nordeste 37 Sudoeste -- -- -- 53
2019-11-25 13:00:00 6 19 Sudoeste 34 Sur -- -- -- 58
2019-11-25 12:00:00 5.7 18 Sudoeste 35 Sur -- -- -- 61
2019-11-25 11:00:00 -- -- -- -- -- -- -- -- --
2019-11-25 10:00:00 -- -- -- -- -- -- -- -- --
2019-11-25 09:00:00 -- -- -- -- -- -- -- -- --
2019-11-25 08:00:00 -- -- -- -- -- -- -- -- --
2019-11-25 07:00:00 -- -- -- -- -- -- -- -- --
2019-11-25 06:00:00 -- -- -- -- -- -- -- -- --
2019-11-25 05:00:00 -- -- -- -- -- -- -- -- --
2019-11-25 04:00:00 -- -- -- -- -- -- -- -- --
2019-11-25 03:00:00 -- -- -- -- -- -- -- -- --
2019-11-25 02:00:00 -- -- -- -- -- -- -- -- --
2019-11-25 01:00:00 -- -- -- -- -- -- -- -- --
2019-11-25 00:00:00 -- -- -- -- -- -- -- -- --
2019-11-24 23:00:00 -- -- -- -- -- -- -- -- --
2019-11-24 22:00:00 -- -- -- -- -- -- -- -- --
2019-11-24 21:00:00 -- -- -- -- -- -- -- -- --
2019-11-24 20:00:00 -- -- -- -- -- -- -- -- --
2019-11-24 19:00:00 -- -- -- -- -- -- -- -- --
2019-11-24 18:00:00 -- -- -- -- -- -- -- -- --
2019-11-24 17:00:00 -- -- -- -- -- -- -- -- --
2019-11-24 16:00:00 -- -- -- -- -- -- -- -- --
2019-11-24 15:00:00 -- -- -- -- -- -- -- -- --
2019-11-24 14:00:00 -- -- -- -- -- -- -- -- --
2019-11-24 13:00:00 -- -- -- -- -- -- -- -- --
2019-11-24 12:00:00 -- -- -- -- -- -- -- -- --
2019-11-24 11:00:00 -- -- -- -- -- -- -- -- --
2019-11-24 10:00:00 -- -- -- -- -- -- -- -- --
2019-11-24 09:00:00 -- -- -- -- -- -- -- -- --
2019-11-24 08:00:00 -- -- -- -- -- -- -- -- --
2019-11-24 07:00:00 -- -- -- -- -- -- -- -- --
2019-11-24 06:00:00 -- -- -- -- -- -- -- -- --
2019-11-24 05:00:00 -- -- -- -- -- -- -- -- --
2019-11-24 04:00:00 -- -- -- -- -- -- -- -- --
2019-11-24 03:00:00 -- -- -- -- -- -- -- -- --
2019-11-24 02:00:00 -- -- -- -- -- -- -- -- --
2019-11-24 01:00:00 -- -- -- -- -- -- -- -- --
2019-11-24 00:00:00 -- -- -- -- -- -- -- -- --
2019-11-23 23:00:00 -- -- -- -- -- -- -- -- --
2019-11-23 22:00:00 -- -- -- -- -- -- -- -- --
2019-11-23 21:00:00 -- -- -- -- -- -- -- -- --
2019-11-23 20:00:00 -- -- -- -- -- -- -- -- --
2019-11-23 19:00:00 -- -- -- -- -- -- -- -- --
2019-11-23 18:00:00 -- -- -- -- -- -- -- -- --
2019-11-23 17:00:00 -- -- -- -- -- -- -- -- --
2019-11-23 16:00:00 -- -- -- -- -- -- -- -- --
2019-11-23 15:00:00 -- -- -- -- -- -- -- -- --
2019-11-23 14:00:00 -- -- -- -- -- -- -- -- --
2019-11-23 13:00:00 -- -- -- -- -- -- -- -- --
2019-11-23 12:00:00 -- -- -- -- -- -- -- -- --
2019-11-23 11:00:00 -- -- -- -- -- -- -- -- --
2019-11-23 10:00:00 -- -- -- -- -- -- -- -- --
2019-11-23 09:00:00 -- -- -- -- -- -- -- -- --
2019-11-23 08:00:00 -- -- -- -- -- -- -- -- --
2019-11-23 07:00:00 -- -- -- -- -- -- -- -- --
2019-11-23 06:00:00 -- -- -- -- -- -- -- -- --
2019-11-23 05:00:00 -- -- -- -- -- -- -- -- --
2019-11-23 04:00:00 -- -- -- -- -- -- -- -- --
2019-11-23 03:00:00 -- -- -- -- -- -- -- -- --
2019-11-23 02:00:00 -- -- -- -- -- -- -- -- --
2019-11-23 01:00:00 -- -- -- -- -- -- -- -- --
2019-11-23 00:00:00 -- -- -- -- -- -- -- -- --
2019-11-22 23:00:00 -- -- -- -- -- -- -- -- --
2019-11-22 22:00:00 -- -- -- -- -- -- -- -- --
2019-11-22 21:00:00 -- -- -- -- -- -- -- -- --
2019-11-22 20:00:00 -- -- -- -- -- -- -- -- --
2019-11-22 19:00:00 -- -- -- -- -- -- -- -- --
2019-11-22 18:00:00 -- -- -- -- -- -- -- -- --
2019-11-22 17:00:00 -- -- -- -- -- -- -- -- --
2019-11-22 16:00:00 -- -- -- -- -- -- -- -- --
2019-11-22 15:00:00 -- -- -- -- -- -- -- -- --
2019-11-22 14:00:00 -- -- -- -- -- -- -- -- --
2019-11-22 13:00:00 -- -- -- -- -- -- -- -- --
2019-11-22 12:00:00 -- -- -- -- -- -- -- -- --
2019-11-22 11:00:00 -- -- -- -- -- -- -- -- --
2019-11-22 10:00:00 -- -- -- -- -- -- -- -- --
2019-11-22 09:00:00 -- -- -- -- -- -- -- -- --
2019-11-22 08:00:00 -- -- -- -- -- -- -- -- --
2019-11-22 07:00:00 -- -- -- -- -- -- -- -- --
2019-11-22 06:00:00 -- -- -- -- -- -- -- -- --
2019-11-22 05:00:00 -- -- -- -- -- -- -- -- --
2019-11-22 04:00:00 1.9 32 Sudeste 78 Sur -- -- -- 88
2019-11-22 03:00:00 1.7 39 Sur 78 Sur -- -- -- 90
2019-11-22 02:00:00 0.6 50 Sur 86 Sur -- -- -- 90
2019-11-22 01:00:00 0.4 40 Sur 80 Sur -- -- -- 89
2019-11-22 00:00:00 0.6 37 Sur 76 Sur -- -- -- 88
2019-11-21 23:00:00 0.5 25 Sudeste 69 Sur -- -- -- 87
2019-11-21 22:00:00 0.5 42 Sur 69 Sur -- -- -- 86
2019-11-21 21:00:00 0.5 47 Sur 73 Sur -- -- -- 84
2019-11-21 20:00:00 0.4 40 Sur 63 Sur -- -- -- 80
2019-11-21 19:00:00 0.1 27 Sur 44 Sur -- -- -- 75
2019-11-21 18:00:00 0.4 31 Sur 51 Sur -- -- -- 70
2019-11-21 17:00:00 0.6 32 Sur 46 Sur -- -- -- 78
2019-11-21 16:00:00 0.6 18 Sur 37 Sur -- -- -- 76
2019-11-21 15:00:00 1.1 21 Sur 40 Sur -- -- -- 70
2019-11-21 14:00:00 0.9 18 Sur 37 Sur -- -- -- 70
2019-11-21 13:00:00 0.2 8 Sudeste 22 Sur -- -- -- 68
2019-11-21 12:00:00 0.4 9 Sur 30 Sur -- -- -- 62
2019-11-21 11:00:00 0.2 10 Sur 27 Sudoeste -- -- -- 61
2019-11-21 10:00:00 1.1 8 Sudoeste 35 Sudoeste -- -- -- 56
2019-11-21 09:00:00 1.8 7 Sudoeste 28 Sudoeste -- -- -- 56
2019-11-21 08:00:00 -0.6 20 Sudoeste 34 Sudoeste -- -- -- 73
2019-11-21 07:00:00 -0.1 15 Sur 26 Sur -- -- -- 75
2019-11-21 06:00:00 -0.4 17 Sur 25 Sur -- -- -- 86
2019-11-21 05:00:00 0 15 Sur 31 Sur -- -- -- 86
2019-11-21 04:00:00 0.4 20 Sur 38 Sudoeste -- -- -- 82
2019-11-21 03:00:00 0.8 25 Sudoeste 45 Sudoeste -- -- -- 76
2019-11-21 02:00:00 0.7 23 Sudoeste 37 Sur -- -- -- 78
2019-11-21 01:00:00 0.5 23 Sur 54 Sur -- -- -- 76
2019-11-21 00:00:00 0.6 23 Sudoeste 54 Sur -- -- -- 76
2019-11-20 23:00:00 0.7 19 Sur 37 Sur -- -- -- 87
2019-11-20 22:00:00 0.5 10 Sur 27 Sur -- -- -- 91
2019-11-20 21:00:00 0.4 11 Sudeste 30 Sur -- -- -- 91
2019-11-20 20:00:00 0.5 18 Sur 37 Sudeste -- -- -- 91
2019-11-20 19:00:00 0.6 22 Sudeste 40 Sudeste -- -- -- 90
2019-11-20 18:00:00 0.6 15 Sur 32 Sur -- -- -- 90
2019-11-20 17:00:00 0.6 16 Sur 35 Sur -- -- -- 90
2019-11-20 16:00:00 0.9 16 Sur 27 Sur -- -- -- 90
2019-11-20 15:00:00 0.4 15 Sur 30 Sudeste -- -- -- 90
2019-11-20 14:00:00 0.1 18 Sur 35 Sur -- -- -- 90
2019-11-20 13:00:00 0.2 17 Sur 32 Sur -- -- -- 90
2019-11-20 12:00:00 0.2 18 Sur 35 Sur -- -- -- 90
2019-11-20 11:00:00 0.3 19 Sudeste 39 Sudeste -- -- -- 91
2019-11-20 10:00:00 0.1 21 Sur 44 Sudeste -- -- -- 91
2019-11-20 09:00:00 0 21 Sur 35 Sur -- -- -- 91
2019-11-20 08:00:00 -0.1 20 Sur 42 Sur -- -- -- 91
2019-11-20 07:00:00 -0.1 20 Sudeste 34 Sudeste -- -- -- 91
2019-11-20 06:00:00 0 17 Sur 33 Sudeste -- -- -- 91
2019-11-20 05:00:00 0.2 20 Sudeste 36 Sudeste -- -- -- 91
2019-11-20 04:00:00 0.1 20 Sudeste 36 Sudeste -- -- -- 91
2019-11-20 03:00:00 -0.1 15 Sur 42 Sur -- -- -- 91
2019-11-20 02:00:00 -0.3 20 Sur 43 Sur -- -- -- 91
2019-11-20 01:00:00 -0.5 26 Sur 42 Sur -- -- -- 90
2019-11-20 00:00:00 0.2 16 Sudeste 41 Sur -- -- -- 88
2019-11-19 23:00:00 -0.2 27 Sur 44 Sur -- -- -- 87
2019-11-19 22:00:00 0 26 Sur 39 Sur -- -- -- 86
2019-11-19 21:00:00 0 24 Sur 35 Sur -- -- -- 85
2019-11-19 20:00:00 -0.1 30 Sur 35 Sur -- -- -- 83
2019-11-19 19:00:00 2 15 Sur 34 Sur -- -- -- 82
2019-11-19 18:00:00 0.3 19 Sur 32 Sur -- -- -- 80
2019-11-19 17:00:00 0.6 18 Sur 33 Sudeste -- -- -- 75
2019-11-19 16:00:00 0.3 21 Sur 35 Sudeste -- -- -- 73
2019-11-19 15:00:00 -0.1 22 Sur 35 Sudeste -- -- -- 74
2019-11-19 14:00:00 -0.2 19 Sur 30 Sur -- -- -- 76
2019-11-19 13:00:00 -0.4 21 Sur 29 Sudeste -- -- -- 75
2019-11-19 12:00:00 -0.6 20 Sur 28 Sudeste -- -- -- 72
2019-11-19 11:00:00 -0.9 21 Sudeste 28 Sur -- -- -- 74
2019-11-19 10:00:00 -1.5 17 Sur 29 Sudeste -- -- -- 78
2019-11-19 09:00:00 -1.5 21 Sudeste 28 Sur -- -- -- 78
2019-11-19 08:00:00 -2.3 20 Sur 30 Sur -- -- -- 83
2019-11-19 07:00:00 -1.6 16 Sudeste 25 Sudeste -- -- -- 78
2019-11-19 06:00:00 -1.4 16 Sur 22 Sur -- -- -- 73
2019-11-19 05:00:00 -1.2 16 Sudeste 23 Sudeste -- -- -- 76
2019-11-19 04:00:00 -1.2 16 Sudeste 23 Sur -- -- -- 76
2019-11-19 03:00:00 -1.4 10 Sur 19 Sur -- -- -- 77
2019-11-19 02:00:00 -2.6 5 Sur 15 Sur -- -- -- 85
2019-11-19 01:00:00 -2.9 2 Sudoeste 16 Sur -- -- -- 90
2019-11-19 00:00:00 -2.6 0 Calma 18 Sur -- -- -- 91
2019-11-18 23:00:00 -2.1 10 Sur 13 Sur -- -- -- 91
2019-11-18 22:00:00 -1.3 0 Calma 0 Calma -- -- -- 91
2019-11-18 21:00:00 -0.5 0 Calma 0 Calma -- -- -- 91
2019-11-18 20:00:00 -0.4 0 Calma 6 Noroeste -- -- -- 91
2019-11-18 19:00:00 -0.4 4 Oeste 11 Noroeste -- -- -- 91
2019-11-18 18:00:00 -0.2 6 Noroeste 12 Noroeste -- -- -- 91
2019-11-18 17:00:00 -0.2 6 Noroeste 15 Noroeste -- -- -- 91
2019-11-18 16:00:00 0 6 Noroeste 14 Noroeste -- -- -- 91
2019-11-18 15:00:00 -0.1 6 Noroeste 15 Noroeste -- -- -- 91
2019-11-18 14:00:00 -0.1 7 Noroeste 13 Noroeste -- -- -- 91
2019-11-18 13:00:00 -0.3 7 Noroeste 14 Noroeste -- -- -- 91
2019-11-18 12:00:00 -0.5 6 Noroeste 13 Noroeste -- -- -- 91
2019-11-18 11:00:00 -0.6 8 Noroeste 13 Noroeste -- -- -- 91
2019-11-18 10:00:00 -0.8 8 Noroeste 17 Noroeste -- -- -- 91
2019-11-18 09:00:00 -0.9 9 Noroeste 32 Noroeste -- -- -- 91
2019-11-18 08:00:00 -0.7 13 Noroeste 30 Noroeste -- -- -- 91
2019-11-18 07:00:00 -1.1 10 Noroeste 19 Noroeste -- -- -- 91
2019-11-18 06:00:00 -1.6 10 Noroeste 18 Noroeste -- -- -- 91
2019-11-18 05:00:00 -1.2 8 Noroeste 18 Noroeste -- -- -- 91
2019-11-18 04:00:00 -1.5 6 Noroeste 19 Noroeste -- -- -- 91
2019-11-18 03:00:00 -1.4 10 Noroeste 20 Noroeste -- -- -- 91
2019-11-18 02:00:00 -1.1 11 Noroeste 37 Noroeste -- -- -- 91
2019-11-18 01:00:00 -0.8 14 Noroeste 29 Noroeste -- -- -- 91
2019-11-18 00:00:00 -0.9 13 Noroeste 43 Noroeste -- -- -- 91
2019-11-17 23:00:00 -1 12 Noroeste 39 Noroeste -- -- -- 91
2019-11-17 22:00:00 -1.3 21 Noroeste 40 Noroeste -- -- -- 91
2019-11-17 21:00:00 -2 18 Noroeste 36 Noroeste -- -- -- 91
2019-11-17 20:00:00 -1.4 18 Noroeste 42 Noroeste -- -- -- 91
2019-11-17 19:00:00 -0.7 15 Noroeste 27 Noroeste -- -- -- 91
2019-11-17 18:00:00 -0.5 13 Noroeste 30 Noroeste -- -- -- 90
2019-11-17 17:00:00 0 8 Noroeste 19 Noroeste -- -- -- 86
2019-11-17 16:00:00 -0.1 9 Noroeste 27 Oeste -- -- -- 91
2019-11-17 15:00:00 0.6 8 Noroeste 18 Noroeste -- -- -- 91
2019-11-17 14:00:00 0.6 9 Noroeste 23 Noroeste -- -- -- 91
2019-11-17 13:00:00 1.1 5 Noroeste 24 Noroeste -- -- -- 91
2019-11-17 12:00:00 1.4 9 Noroeste 23 Noroeste -- -- -- 91
2019-11-17 11:00:00 1.6 7 Noroeste 18 Noroeste -- -- -- 91
2019-11-17 10:00:00 1.2 0 Calma 11 Sur -- -- -- 91
2019-11-17 09:00:00 1.3 2 Oeste 12 Oeste -- -- -- 91
2019-11-17 08:00:00 1 0 Calma 0 Calma -- -- -- 91
2019-11-17 07:00:00 0.4 0 Calma 0 Calma -- -- -- 91
2019-11-17 06:00:00 0.5 0 Calma 0 Calma -- -- -- 91
2019-11-17 05:00:00 0.3 0 Calma 0 Calma -- -- -- 91
2019-11-17 04:00:00 0 0 Calma 0 Calma -- -- -- 91
2019-11-17 03:00:00 0 0 Calma -- -- -- -- -- 91
2019-11-17 02:00:00 -0.4 0 Calma 0 Calma -- -- -- 91
2019-11-17 01:00:00 0 0 Calma 0 Calma -- -- -- 91
2019-11-17 00:00:00 -0.5 0 Calma 0 Calma -- -- -- 91
2019-11-16 23:00:00 -0.9 0 Calma -- -- -- -- -- 91
2019-11-16 22:00:00 -1.3 0 Calma 0 Calma -- -- -- 91
2019-11-16 21:00:00 -1.6 0 Calma 0 Calma -- -- -- 91
2019-11-16 20:00:00 -2.2 0 Calma 0 Calma -- -- -- 91
2019-11-16 19:00:00 -2.3 0 Calma 0 Calma -- -- -- 91
2019-11-16 18:00:00 -2.9 0 Calma 0 Calma -- -- -- 91
2019-11-16 17:00:00 -1.7 0 Calma 0 Calma -- -- -- 91
2019-11-16 16:00:00 -1.1 0 Calma 0 Calma -- -- -- 91
2019-11-16 15:00:00 -0.7 0 Calma 0 Calma -- -- -- 91
2019-11-16 14:00:00 -0.6 0 Calma 0 Calma -- -- -- 91
2019-11-16 13:00:00 -0.8 0 Calma -- -- -- -- -- 90
2019-11-16 12:00:00 -1 0 Calma -- -- -- -- -- 90
2019-11-16 11:00:00 -1.6 0 Calma -- -- -- -- -- 90
2019-11-16 10:00:00 -1.6 0 Calma -- -- -- -- -- 90
2019-11-16 09:00:00 -1.8 0 Calma -- -- -- -- -- 90
2019-11-16 08:00:00 -- -- -- -- -- -- -- -- --
2019-11-16 07:00:00 -- -- -- -- -- -- -- -- --
2019-11-16 06:00:00 -- -- -- -- -- -- -- -- --
2019-11-16 05:00:00 -- -- -- -- -- -- -- -- --
2019-11-16 04:00:00 -- -- -- -- -- -- -- -- --
2019-11-16 03:00:00 -- -- -- -- -- -- -- -- --
2019-11-16 02:00:00 -- -- -- -- -- -- -- -- --
2019-11-16 01:00:00 -- -- -- -- -- -- -- -- --
2019-11-16 00:00:00 -- -- -- -- -- -- -- -- --
2019-11-15 23:00:00 -2.5 0 Calma -- -- -- -- -- 90
2019-11-15 22:00:00 -2.6 0 Calma 0 Calma -- -- -- 90
2019-11-15 21:00:00 -2.7 0 Calma 0 Calma -- -- -- 90
2019-11-15 20:00:00 -2.8 0 Calma 0 Calma -- -- -- 90
2019-11-15 19:00:00 -2.7 0 Calma 6 Noroeste -- -- -- 90
2019-11-15 18:00:00 -2.6 0 Calma 2 Noroeste -- -- -- 90
2019-11-15 17:00:00 -2.5 0 Calma -- -- -- -- -- 90
2019-11-15 16:00:00 -- -- -- -- -- -- -- -- --
2019-11-15 15:00:00 -2.3 0 Calma 2 Noroeste -- -- -- 90
2019-11-15 14:00:00 -2.1 0 Calma -- -- -- -- -- 90
2019-11-15 13:00:00 -- -- -- -- -- -- -- -- --
2019-11-15 12:00:00 -- -- -- -- -- -- -- -- --
2019-11-15 11:00:00 -- -- -- -- -- -- -- -- --
2019-11-15 10:00:00 -- -- -- -- -- -- -- -- --
2019-11-15 09:00:00 -- -- -- -- -- -- -- -- --
2019-11-15 08:00:00 -- -- -- -- -- -- -- -- --
2019-11-15 07:00:00 -- -- -- -- -- -- -- -- --
2019-11-15 06:00:00 -- -- -- -- -- -- -- -- --
2019-11-15 05:00:00 -- -- -- -- -- -- -- -- --
2019-11-15 04:00:00 -- -- -- -- -- -- -- -- --
2019-11-15 03:00:00 -- -- -- -- -- -- -- -- --
2019-11-15 02:00:00 -2.7 10 Noroeste 21 Noroeste -- -- -- 90
2019-11-15 01:00:00 -- 5 Oeste 17 Noroeste -- -- -- --
2019-11-15 00:00:00 -2.3 8 Noroeste 18 Noroeste -- -- -- 90
2019-11-14 23:00:00 -2.3 7 Noroeste 29 Noroeste -- -- -- 90
2019-11-14 22:00:00 -2.2 14 Noroeste 39 Oeste -- -- -- 90
2019-11-14 21:00:00 -2.2 11 Noroeste 34 Noroeste -- -- -- 90
2019-11-14 20:00:00 -2.3 13 Noroeste 47 Oeste -- -- -- 90
2019-11-14 19:00:00 -2.5 21 Noroeste 47 Noroeste -- -- -- 90
2019-11-14 18:00:00 -2.4 20 Noroeste 52 Noroeste -- -- -- 90
2019-11-14 17:00:00 -2.3 13 Noroeste 26 Noroeste -- -- -- 90
2019-11-14 16:00:00 -2.5 8 Noroeste 35 Noroeste -- -- -- 88
2019-11-14 15:00:00 -2.1 7 Norte 15 Noroeste -- -- -- 83
2019-11-14 14:00:00 -1.9 2 Sudoeste 37 Sudoeste -- -- -- 74
2019-11-14 13:00:00 -0.9 9 Sudoeste 32 Oeste -- -- -- 68
2019-11-14 12:00:00 -1.8 14 Sur 31 Sudoeste -- -- -- 73
2019-11-14 11:00:00 -1.4 8 Nordeste 37 Sudoeste -- -- -- 66
2019-11-14 10:00:00 -1.6 7 Sudoeste 24 Sudoeste -- -- -- 66
2019-11-14 09:00:00 -2.3 13 Sur 28 Sur -- -- -- 64
2019-11-14 08:00:00 -2.7 2 Sudoeste 26 Oeste -- -- -- 75
2019-11-14 07:00:00 -2.9 2 Norte 20 Noroeste -- -- -- 80
2019-11-14 06:00:00 -3.1 5 Noroeste 24 Oeste -- -- -- 83
2019-11-14 05:00:00 -2.7 6 Norte 26 Noroeste -- -- -- 90
2019-11-14 04:00:00 -1.9 9 Noroeste 19 Noroeste -- -- -- 90
2019-11-14 03:00:00 -1.4 7 Noroeste 29 Noroeste -- -- -- 90
2019-11-14 02:00:00 -0.4 6 Noroeste 18 Noroeste -- -- -- 89
2019-11-14 01:00:00 0.5 4 Norte 21 Norte -- -- -- 85
2019-11-14 00:00:00 1.7 5 Noroeste 18 Noroeste -- -- -- 78
2019-11-13 23:00:00 2.6 4 Oeste 37 Nordeste -- -- -- 70
2019-11-13 22:00:00 3.1 10 Sur 49 Oeste -- -- -- 65
2019-11-13 21:00:00 3.1 2 Oeste 53 Oeste -- -- -- 64
2019-11-13 20:00:00 3.1 7 Sudoeste 72 Oeste -- -- -- 64
2019-11-13 19:00:00 3.6 6 Oeste 39 Noroeste -- -- -- 62
2019-11-13 18:00:00 3.6 4 Sudeste 22 Sudoeste -- -- -- 78
2019-11-13 17:00:00 3.7 7 Sur 23 Sur -- -- -- 82
2019-11-13 16:00:00 4 7 Sur 14 Sudoeste -- -- -- 91
2019-11-13 15:00:00 4.2 2 Noroeste 11 Noroeste -- -- -- 91
2019-11-13 14:00:00 3.6 4 Noroeste 9 Noroeste -- -- -- 91
2019-11-13 13:00:00 2.6 6 Noroeste 25 Noroeste -- -- -- 91
2019-11-13 12:00:00 2.3 10 Noroeste 29 Noroeste -- -- -- 91
2019-11-13 11:00:00 2.2 14 Noroeste 33 Noroeste -- -- -- 91
2019-11-13 10:00:00 2.3 14 Noroeste 35 Noroeste -- -- -- 91
2019-11-13 09:00:00 2.3 17 Noroeste 37 Noroeste -- -- -- 91
2019-11-13 08:00:00 2.5 14 Noroeste 35 Noroeste -- -- -- 91
2019-11-13 07:00:00 2.6 17 Noroeste 36 Noroeste -- -- -- 91
2019-11-13 06:00:00 2.7 22 Noroeste 45 Noroeste -- -- -- 91
2019-11-13 05:00:00 3.2 17 Noroeste 40 Noroeste -- -- -- 91
2019-11-13 04:00:00 3.3 18 Noroeste 51 Noroeste -- -- -- 91
2019-11-13 03:00:00 4.9 17 Noroeste 51 Noroeste -- -- -- 91
2019-11-13 02:00:00 5.2 18 Noroeste 34 Noroeste -- -- -- 87
2019-11-13 01:00:00 5.4 7 Norte 25 Oeste -- -- -- 90
2019-11-13 00:00:00 4.3 2 Norte 12 Nordeste -- -- -- 89
2019-11-12 23:00:00 4.3 2 Este 8 Este -- -- -- 89
2019-11-12 22:00:00 4.1 0 Calma 11 Nordeste -- -- -- 87
2019-11-12 21:00:00 3.8 3 Nordeste 16 Sudeste -- -- -- 84
2019-11-12 20:00:00 5.8 3 Sudeste 29 Nordeste -- -- -- 78
2019-11-12 19:00:00 6.1 13 Sudoeste 43 Sur -- -- -- 73
2019-11-12 18:00:00 5.5 16 Sudoeste 35 Sudoeste -- -- -- 75
2019-11-12 17:00:00 4.5 6 Sudoeste 38 Sur -- -- -- 85
2019-11-12 16:00:00 3.9 8 Sur 31 Noroeste -- -- -- 87
2019-11-12 15:00:00 2.8 10 Sur 24 Sudoeste -- -- -- 90
2019-11-12 14:00:00 2.2 16 Sur 22 Sur -- -- -- 90
2019-11-12 13:00:00 2.9 5 Norte 16 Sur -- -- -- 92
2019-11-12 12:00:00 2.1 11 Sur 16 Sur -- -- -- 92
2019-11-12 11:00:00 1 0 Calma 8 Nordeste -- -- -- 92
2019-11-12 10:00:00 0.4 0 Calma 11 Noroeste -- -- -- 92
2019-11-12 09:00:00 0 0 Calma 7 Noroeste -- -- -- 92
2019-11-12 08:00:00 -0.1 0 Calma 11 Norte -- -- -- 92
2019-11-12 07:00:00 -0.1 3 Norte 10 Noroeste -- -- -- 92
2019-11-12 06:00:00 -0.1 2 Norte 9 Noroeste -- -- -- 92
2019-11-12 05:00:00 -0.1 2 Norte 12 Noroeste -- -- -- 92
2019-11-12 04:00:00 -0.4 6 Noroeste 17 Noroeste -- -- -- 92
2019-11-12 03:00:00 -0.3 4 Noroeste 15 Noroeste -- -- -- 92
2019-11-12 02:00:00 -0.4 5 Norte 15 Noroeste -- -- -- 92
2019-11-12 01:00:00 -0.2 9 Noroeste 19 Norte -- -- -- 92
2019-11-12 00:00:00 -0.3 11 Noroeste 20 Noroeste -- -- -- 92
2019-11-11 23:00:00 -0.3 11 Noroeste 23 Noroeste -- -- -- 92
2019-11-11 22:00:00 -0.3 12 Noroeste 22 Noroeste -- -- -- 92
2019-11-11 21:00:00 -0.2 13 Noroeste 25 Noroeste -- -- -- 92
2019-11-11 20:00:00 -0.3 14 Noroeste 28 Noroeste -- -- -- 92
2019-11-11 19:00:00 -0.2 16 Noroeste 41 Noroeste -- -- -- 92
2019-11-11 18:00:00 0.2 15 Noroeste 39 Noroeste -- -- -- 92
2019-11-11 17:00:00 0.3 20 Noroeste 66 Noroeste -- -- -- 92
2019-11-11 16:00:00 0.6 23 Noroeste 50 Noroeste -- -- -- 92
2019-11-11 15:00:00 0.7 18 Noroeste 57 Noroeste -- -- -- 92
2019-11-11 14:00:00 1.6 25 Noroeste 63 Noroeste -- -- -- 92
2019-11-11 13:00:00 1.6 24 Noroeste 64 Noroeste -- -- -- 92
2019-11-11 12:00:00 2.2 24 Noroeste 49 Noroeste -- -- -- 92
2019-11-11 11:00:00 3 24 Noroeste 62 Noroeste -- -- -- 92
2019-11-11 10:00:00 4.4 23 Noroeste 55 Noroeste -- -- -- 92
2019-11-11 09:00:00 5.4 26 Noroeste 54 Norte -- -- -- 92
2019-11-11 08:00:00 5.5 19 Noroeste 41 Noroeste -- -- -- 92
2019-11-11 07:00:00 5.2 14 Noroeste 30 Noroeste -- -- -- 92
2019-11-11 06:00:00 4.3 10 Noroeste 26 Noroeste -- -- -- 92
2019-11-11 05:00:00 4 11 Noroeste 26 Norte -- -- -- 92
2019-11-11 04:00:00 2.8 6 Noroeste 19 Noroeste -- -- -- 92
2019-11-11 03:00:00 2.4 11 Noroeste 19 Noroeste -- -- -- 92
2019-11-11 02:00:00 0.9 6 Norte 13 Noroeste -- -- -- 92
2019-11-11 01:00:00 0.2 0 Calma 9 Noroeste -- -- -- 92
2019-11-11 00:00:00 0 6 Noroeste 9 Noroeste -- -- -- 92
2019-11-10 23:00:00 0 0 Calma 10 Oeste -- -- -- 92
2019-11-10 22:00:00 -0.1 6 Noroeste 13 Noroeste -- -- -- 92
2019-11-10 21:00:00 -0.4 6 Noroeste 14 Noroeste -- -- -- 91
2019-11-10 20:00:00 -0.6 9 Noroeste 17 Noroeste -- -- -- 91
2019-11-10 19:00:00 -1.1 11 Noroeste 19 Noroeste -- -- -- 91
2019-11-10 18:00:00 -1.2 13 Noroeste 23 Oeste -- -- -- 92
2019-11-10 17:00:00 -1.6 15 Noroeste 26 Noroeste -- -- -- 91
2019-11-10 16:00:00 -1.2 16 Noroeste 26 Noroeste -- -- -- 91
2019-11-10 15:00:00 -1.1 14 Noroeste 35 Oeste 0 -- -- 91
2019-11-10 14:00:00 -1 16 Noroeste 40 Noroeste 0 -- -- 92
2019-11-10 13:00:00 -0.9 16 Noroeste 33 Noroeste 0 -- -- 92
2019-11-10 12:00:00 -0.7 13 Noroeste 35 Noroeste 0 -- -- 92
2019-11-10 11:00:00 -0.7 12 Noroeste 37 Noroeste 0 -- -- 92
2019-11-10 10:00:00 -0.7 12 Noroeste 44 Noroeste 0 -- -- 91
2019-11-10 09:00:00 -1.1 16 Noroeste 35 Noroeste 0 -- -- 91
2019-11-10 08:00:00 -1.7 17 Noroeste 42 Noroeste 0 -- -- 91
2019-11-10 07:00:00 -1.9 15 Noroeste 29 Noroeste 0 -- -- 91
2019-11-10 06:00:00 -1.7 13 Noroeste 26 Noroeste 0 -- -- 91
2019-11-10 05:00:00 -1.8 12 Noroeste 39 Noroeste 0 -- -- 91
2019-11-10 04:00:00 -1.7 15 Noroeste 29 Noroeste 0 -- -- 91
2019-11-10 03:00:00 -1.5 14 Noroeste 37 Noroeste 0 -- -- 91
2019-11-10 02:00:00 -1.9 13 Noroeste 37 Noroeste 0 -- -- 91
2019-11-10 01:00:00 -1.7 10 Noroeste 42 Noroeste 0 -- -- 91
2019-11-10 00:00:00 -1.3 16 Noroeste 37 Noroeste 0 -- -- 92